Powrót do katalogu

STARLINK-35884

AktywnyŁącznośćVLEO
NORAD 67044·PAYLOAD·🇺🇸 United States

Wystrzelony Dec 11, 2025 z Cape Canaveral Space Force Station

Loading…

Następne Przeloty (najbliższe 24 godziny)

TLE

ŚwieżeSource: CelesTrak SupGP

Epoka: Sep 15, 2026, 03:48 UTC

1 67044C 25294Q   26258.15881944 -.00021677  00000+0 -78501-3 0  2582
2 67044  43.0012  47.6717 0001650 273.7464 333.3719 15.27594144    12

Śledź STARLINK-35884 w czasie rzeczywistym z AllMySat

Download on the App Store